User: anonymous   Login
Location: Caltech
(34.1382°N, 118.1253°W)
Time: 18:59:44
(UTC-08:00)
Language:

OAO 2 Rocket - Orbit

View from above orbital plane
View from above orbital plane
View from above satellite
View from above satellite

Ground track
Ground track

The orbit data is extracted from the following two-line orbital elements,

1  3598U 68110B   18050.91447684 +.00000076 +00000-0 +22430-4 0  9996
2  3598 034.9946 018.2880 0048835 077.3630 283.2518 14.54356060581651
Epoch (UTC): 19 February 2018 21:56:50
Eccentricity: 0.0048835
inclination: 34.9946°
perigee height: 677 km
apogee height: 746 km
right ascension of ascending node: 18.2880°
argument of perigee: 77.3630°
revolutions per day: 14.54356060
mean anomaly at epoch: 283.2518°
orbit number at epoch: 58165

The dashed part of the orbit path shows where the satellite is in the earth's shadow,  

DLR